[[{"header":{"parameterUnit":"m.s-1","parameterCategory":1,"la1":30.2991,"la2":30.254,"lo1":-89.0895,"lo2":-89.0444,"dy":0.0017,"dx":0.0017,"nx":28,"ny":28,"refTime":"2023-09-19T21:00:00:Z","depth":0,"parameterNumber":2,"parameterNumberName":"U-component_of_WINDS"},"data":[0,0,0,0,0,0,0,0,0,0,0,0,0,0,0,0,0,0,0,0,0,0,0,0,0,0,0,0,0,0,0,0,0,0,0,0,0,0,0,0,0,0,0,0,0,0,0,0,0,0,0,0,0,0,0,0,0,0,-7.2213,-7.2214,0,-7.2303,-7.2304,-7.2305,-7.2197,-7.2193,-7.2189,-7.2186,-7.2273,-7.2279,-7.2285,0,0,0,0,0,0,0,0,0,0,0,0,0,-7.1945,-7.195,-7.2213,-7.2214,-7.2215,-7.2303,-7.2304,-7.2305,-7.2198,-7.2193,-7.2188,-7.2184,-7.2271,-7.2278,-7.2285,0,0,0,0,0,0,0,0,0,0,0,0,0,-7.2051,-7.1952,-7.2213,-7.2173,-7.217,-7.2303,-7.2304,-7.2306,-7.2199,-7.2193,-7.2187,-7.2181,-7.2269,-7.2277,-7.2286,-7.2462,0,0,-7.2314,-7.2318,0,0,0,0,0,0,0,0,-7.2045,-7.2061,-7.2177,-7.2176,-7.2173,-7.2233,-7.2241,-7.2358,-7.2201,-7.2188,-7.2185,-7.2179,-7.2264,-7.2273,-7.2303,-7.2466,-7.247,-7.2315,-7.232,-7.2324,-7.2327,0,0,0,0,0,0,0,-7.2038,-7.2056,-7.2248,-7.2179,-7.2176,-7.2149,-7.2157,-7.2263,-7.2258,-7.2188,-7.2181,-7.2193,-7.2262,-7.2295,-7.2304,-7.2471,-7.2315,-7.2323,-7.2328,-7.2332,-7.2781,-7.2787,0,0,0,0,0,0,-7.2036,-7.2051,-7.2246,-7.2251,-7.2093,-7.2158,-7.2168,-7.222,-7.2257,-7.2257,-7.2198,-7.2188,-7.2282,-7.2294,-7.2307,-7.2513,-7.2324,-7.2333,-7.2338,-7.2775,-7.2783,-7.279,0,0,0,0,0,0,-7.203,-7.2054,-7.2242,-7.2149,-7.2171,-7.2169,-7.2228,-7.2225,-7.2257,-7.2264,-7.2262,-7.2233,-7.2278,-7.2294,-7.2424,-7.2514,-7.2337,-7.2345,-7.2767,-7.2777,-7.2786,-7.2927,0,0,0,0,0,0,-7.2023,-7.2053,-7.212,-7.2151,-7.2176,-7.2359,-7.2234,-7.2231,-7.2274,-7.2261,-7.2296,-7.2296,-7.2274,-7.2411,-7.2433,-7.2524,-7.2352,-7.2759,-7.2771,-7.2783,-7.2914,-7.2941,-7.2963,0,0,0,0,0,-7.2014,-7.2155,-7.2124,-7.2148,-7.2261,-7.2364,-7.2378,-7.2352,-7.2281,-7.2348,-7.2353,-7.2295,-7.2502,-7.2425,-7.2449,-7.2544,-7.2753,-7.2768,-7.2782,-7.2903,-7.2935,-7.2962,0,0,0,0,0,0,-7.2132,-7.2159,-7.2124,-7.2281,-7.2322,-7.2346,-7.2429,-7.2387,-7.2447,-7.2432,-7.2395,-7.2404,-7.2542,-7.2557,-7.2471,-7.2715,-7.2616,-7.2636,-7.27,-7.273,-7.2754,-7.2746,-7.236,0,0,0,0,0,-7.2178,-7.2261,-7.2279,-7.2415,-7.2438,-7.2431,-7.2475,-7.2451,-7.2491,-7.2507,-7.2521,-7.2561,-7.2635,-7.2684,-7.2753,-7.2918,-7.2922,-7.2995,-7.3019,-7.3039,-7.3055,-7.3142,-7.3173,-7.2838,-7.2837,-7.2837,0,0,-7.227,-7.2295,-7.2349,-7.244,-7.2468,-7.2554,-7.2446,-7.2541,-7.2603,-7.2521,-7.2644,-7.2657,-7.2699,-7.2847,-7.2913,-7.2863,-7.315,-7.3058,-7.3073,-7.3079,-7.316,-7.3192,-7.322,-7.2847,-7.2846,-7.2844,0,0,-7.2481,-7.251,-7.2625,-7.2657,-7.2703,-7.2698,-7.2726,-7.2758,-7.2764,-7.2887,-7.2827,-7.2901,-7.303,-7.3062,-7.3095,-7.3322,-7.327,-7.3345,-7.347,-7.3555,-7.3582,-7.3605,-7.3683,-7.3711,-7.3363,-7.3363,-7.3363,0,-7.2589,-7.2717,-7.269,-7.279,-7.283,-7.2763,-7.2879,-7.2911,-7.2976,-7.3005,-7.295,-7.3109,-7.3133,-7.3287,-7.3342,-7.3373,-7.3402,-7.3338,-7.358,-7.3603,-7.3624,-7.3698,-7.3728,-7.3371,-7.337,-7.337,-7.3369,0,-7.2847,-7.2937,-7.3024,-7.3091,-7.3142,-7.325,-7.3237,-7.3292,-7.3266,-7.3266,-7.3392,-7.342,-7.3491,-7.3527,-7.3501,-7.3678,-7.3645,-7.3587,-7.3484,-7.3666,-7.3734,-7.3762,-7.3384,-7.3381,-7.3378,-7.3376,0,0,-7.3131,-7.3183,-7.3215,-7.3244,-7.3291,-7.3359,-7.3464,-7.3536,-7.3583,-7.3632,-7.3716,-7.3828,-7.3774,-7.3812,-7.379,-7.3865,-7.404,-7.3796,-7.3796,-7.3837,-7.4233,-7.4274,-7.4307,-7.4008,-7.4013,-7.4018,-7.4228,0,-7.334,-7.3521,-7.3501,-7.3674,-7.3755,-7.3694,-7.3785,-7.3823,-7.3827,-7.3896,-7.39,-7.3979,-7.3903,-7.3925,-7.3997,-7.4003,-7.4118,-7.3988,-7.4084,-7.4087,-7.4071,-7.4344,-7.4387,-7.4584,-7.4255,-7.426,-7.4263,0,-7.3607,-7.3666,-7.3848,-7.3882,-7.3915,-7.3998,-7.4062,-7.413,-7.4172,-7.4169,-7.4214,-7.4178,-7.4282,-7.4183,-7.4324,-7.4236,-7.4275,-7.4284,-7.4291,-7.4295,-7.4183,-7.4351,-7.4647,-7.4675,-7.4306,-7.4302,-7.4299,0,-7.3792,-7.3918,-7.4042,-7.4069,-7.4113,-7.4172,-7.4193,-7.4229,-7.4274,-7.4331,-7.4359,-7.4428,-7.4464,-7.4517,-7.4501,-7.4431,-7.4645,-7.4545,-7.4644,-7.4644,-7.4687,-7.4684,-7.4989,-7.472,-7.472,-7.4719,-7.4718,0,-7.4025,-7.4137,-7.4125,-7.4201,-7.4325,-7.4301,-7.4424,-7.4437,-7.4471,-7.4547,-7.45,-7.4572,-7.4548,-7.462,-7.4608,-7.4726,-7.4743,-7.4743,-7.4737,-7.4745,-7.4744,-7.4766,-7.475,-7.4727,-7.4725,-7.4724,-7.4722,0,-7.425,-7.4247,-7.4378,-7.441,-7.4421,-7.4511,-7.4537,-7.4608,-7.461,-7.4708,-7.4729,-7.4731,-7.4813,-7.4804,-7.4895,-7.4887,-7.5032,-7.5012,-7.5018,-7.5012,-7.511,-7.5099,-7.5436,-7.5478,-7.5186,-7.5188,-7.5191,0,-7.4396,-7.4482,-7.4524,-7.4572,-7.4598,-7.4677,-7.4723,-7.4703,-7.4753,-7.4808,-7.4872,-7.495,-7.5011,-7.5144,-7.5153,-7.5222,-7.5201,-7.5315,-7.5211,-7.5216,-7.5199,-7.5192,-7.52,-7.5334,-7.5337,-7.534,-7.5342,0,-7.4656,-7.4651,-7.472,-7.4789,-7.4846,-7.4899,-7.4947,-7.4989,-7.4974,-7.5033,-7.5116,-7.5164,-7.5258,-7.5334,-7.5401,-7.5421,-7.5379,-7.5376,-7.5401,-7.5407,-7.5405,-7.5404,-7.5069,-7.5367,-7.5364,-7.5362,-7.5361,-7.536,-7.4844,-7.4916,-7.4957,-7.5035,-7.507,-7.5117,-7.5185,-7.5196,-7.5266,-7.5341,-7.5326,-7.542,-7.546,-7.5545,-7.5572,-7.5645,-7.5603,-7.5641,-7.565,-7.5659,-7.5669,-7.5398,-7.5657,-7.5656,-7.5656,-7.5655,-7.5655,0,-7.5097,-7.5122,-7.5194,-7.5264,-7.5325,-7.5284,-7.5335,-7.5389,-7.5472,-7.5514,-7.5576,-7.5672,-7.5747,-7.5764,-7.5835,-7.589,-7.5872,-7.5909,-7.5902,-7.5907,-7.5704,-7.5672,-7.5922,-7.5922,-7.5922,-7.5922,-7.5922,-7.5921,-7.5236,-7.5356,-7.5356,-7.5493,-7.5516,-7.5608,-7.564,-7.5683,-7.5716,-7.5826,-7.5888,-7.5899,-7.5931,-7.6005,-7.6072,-7.6075,-7.6101,-7.6145,-7.614,-7.5949,-7.5922,-7.5896,-7.5866,-7.6152,-7.6153,-7.6337,-7.6339,-7.634]},{"header":{"parameterUnit":"m.s-1","parameterCategory":1,"la1":30.2991,"la2":30.254,"lo1":-89.0895,"lo2":-89.0444,"dy":0.0017,"dx":0.0017,"nx":28,"ny":28,"refTime":"2023-09-19T21:00:00:Z","depth":0,"parameterNumber":3,"parameterNumberName":"V-component_of_WINDS"},"data":[0,0,0,0,0,0,0,0,0,0,0,0,0,0,0,0,0,0,0,0,0,0,0,0,0,0,0,0,0,0,0,0,0,0,0,0,0,0,0,0,0,0,0,0,0,0,0,0,0,0,0,0,0,0,0,0,0,0,1.4523,1.4523,0,1.4578,1.4579,1.4579,1.4569,1.4568,1.4567,1.4566,1.4621,1.4623,1.4626,0,0,0,0,0,0,0,0,0,0,0,0,0,1.441,1.4412,1.4523,1.4523,1.4524,1.4578,1.4579,1.4579,1.4569,1.4568,1.4566,1.4565,1.462,1.4623,1.4626,0,0,0,0,0,0,0,0,0,0,0,0,0,1.4461,1.4413,1.4523,1.4525,1.4526,1.4578,1.4579,1.458,1.4569,1.4568,1.4566,1.4565,1.4619,1.4623,1.4626,1.4678,0,0,1.4637,1.4639,0,0,0,0,0,0,0,0,1.4459,1.4466,1.4524,1.4525,1.4526,1.4565,1.4559,1.4613,1.457,1.4553,1.4566,1.4564,1.4604,1.4608,1.4622,1.4681,1.4683,1.4638,1.464,1.4641,1.4642,0,0,0,0,0,0,0,1.4455,1.4463,1.4545,1.4525,1.4526,1.4525,1.453,1.4569,1.4586,1.4554,1.4553,1.456,1.4604,1.4618,1.4623,1.4684,1.4638,1.4641,1.4643,1.4644,1.4793,1.4794,0,0,0,0,0,0,1.4451,1.446,1.4543,1.4546,1.4488,1.4528,1.4534,1.4554,1.4585,1.4589,1.4561,1.456,1.4613,1.4619,1.4625,1.469,1.4641,1.4645,1.4647,1.4791,1.4793,1.4795,0,0,0,0,0,0,1.4448,1.4458,1.4541,1.4503,1.4514,1.4531,1.4554,1.4556,1.4571,1.4591,1.4594,1.4573,1.4612,1.462,1.4666,1.4692,1.4646,1.465,1.4789,1.4792,1.4794,1.4819,0,0,0,0,0,0,1.4445,1.4457,1.4476,1.4504,1.4516,1.458,1.4555,1.4558,1.4577,1.4575,1.4603,1.4606,1.4612,1.4661,1.467,1.4696,1.4652,1.4787,1.479,1.4793,1.4816,1.4823,1.4828,0,0,0,0,0,1.4441,1.448,1.4477,1.4487,1.454,1.4581,1.4588,1.4594,1.4579,1.4599,1.4613,1.4605,1.4688,1.4666,1.4675,1.4703,1.4785,1.4789,1.4793,1.4814,1.4821,1.4828,0,0,0,0,0,0,1.4453,1.4483,1.4481,1.4529,1.4553,1.458,1.4604,1.4602,1.463,1.4626,1.4633,1.4639,1.4687,1.47,1.4674,1.4757,1.4734,1.4741,1.4747,1.4754,1.476,1.4756,1.4655,0,0,0,0,0,1.4462,1.4493,1.4518,1.4559,1.4571,1.4586,1.4604,1.4608,1.4632,1.4642,1.4659,1.4683,1.4715,1.4735,1.4765,1.4819,1.4826,1.4843,1.4849,1.4854,1.4859,1.4891,1.49,1.4808,1.4808,1.4808,0,0,1.4479,1.45,1.4518,1.4562,1.458,1.4614,1.4594,1.4629,1.4654,1.4647,1.4692,1.4706,1.4734,1.4785,1.4808,1.4797,1.4886,1.4859,1.4863,1.4865,1.4896,1.4905,1.4913,1.4811,1.4811,1.481,0,0,1.4528,1.4546,1.4584,1.4604,1.4634,1.4644,1.4654,1.4682,1.4691,1.4737,1.4733,1.4764,1.4817,1.4839,1.4856,1.4919,1.4914,1.4929,1.4959,1.4991,1.4998,1.5004,1.5028,1.5037,1.4934,1.4934,1.4934,0,1.4545,1.4595,1.4603,1.464,1.466,1.4657,1.4697,1.4716,1.4753,1.4768,1.4755,1.4826,1.4844,1.4902,1.4918,1.4932,1.4944,1.4925,1.4996,1.5003,1.5009,1.5032,1.5041,1.4936,1.4936,1.4935,1.4935,0,1.4617,1.4652,1.4679,1.4717,1.4741,1.4778,1.4793,1.4816,1.4819,1.4832,1.488,1.4903,1.4939,1.4953,1.4955,1.5013,1.5005,1.4995,1.4971,1.5019,1.5041,1.505,1.4938,1.4938,1.4937,1.4937,0,0,1.4671,1.4717,1.4727,1.4746,1.4781,1.4808,1.4848,1.4885,1.4905,1.4933,1.4967,1.5015,1.5007,1.5027,1.5032,1.506,1.5111,1.5046,1.5047,1.5059,1.5179,1.5187,1.5197,1.5109,1.5111,1.5112,1.5177,0,1.4724,1.4793,1.4804,1.4865,1.4899,1.49,1.4934,1.496,1.4974,1.5006,1.5021,1.5056,1.5042,1.5055,1.5082,1.5099,1.5136,1.5095,1.5141,1.5143,1.5134,1.5208,1.5215,1.5275,1.5185,1.5187,1.5188,0,1.4794,1.4826,1.4891,1.4925,1.494,1.4971,1.5008,1.5038,1.5068,1.5077,1.5102,1.5105,1.5147,1.5124,1.5184,1.5156,1.5177,1.5188,1.5191,1.5195,1.5168,1.5215,1.5294,1.5303,1.5201,1.52,1.5199,0,1.4829,1.4888,1.4936,1.4952,1.4992,1.5015,1.5033,1.5062,1.5085,1.5118,1.5133,1.517,1.519,1.522,1.5233,1.5215,1.5293,1.527,1.5302,1.5302,1.5318,1.5316,1.5402,1.5331,1.5331,1.5331,1.533,0,1.4887,1.4927,1.4952,1.4981,1.5028,1.5041,1.5087,1.5104,1.5131,1.5165,1.5168,1.5199,1.5215,1.525,1.5261,1.5311,1.5319,1.5328,1.5331,1.5328,1.5327,1.5341,1.5337,1.5333,1.5332,1.5332,1.5332,0,1.4932,1.4951,1.5003,1.5039,1.5049,1.5082,1.5113,1.5142,1.5158,1.5201,1.5212,1.5236,1.5278,1.5295,1.5345,1.5353,1.541,1.5409,1.54,1.54,1.5432,1.5429,1.553,1.5544,1.5463,1.5464,1.5465,0,1.4968,1.4999,1.504,1.5063,1.5083,1.512,1.5144,1.516,1.5186,1.5226,1.5251,1.5293,1.5327,1.5394,1.5416,1.5456,1.5456,1.5489,1.5462,1.546,1.5458,1.5456,1.546,1.5493,1.5494,1.5495,1.5495,0,1.5029,1.5038,1.5073,1.5114,1.5144,1.5176,1.5207,1.5226,1.5247,1.5276,1.5319,1.5346,1.54,1.5442,1.5484,1.5503,1.5504,1.5505,1.5514,1.5511,1.5505,1.5511,1.5414,1.5501,1.5501,1.55,1.55,1.55,1.5071,1.5101,1.5135,1.5176,1.5202,1.5232,1.5263,1.5284,1.532,1.5366,1.5373,1.542,1.5454,1.5511,1.5533,1.557,1.5562,1.5576,1.5579,1.5582,1.5585,1.55,1.5578,1.5578,1.5578,1.5578,1.5577,0,1.5134,1.5157,1.5195,1.524,1.5273,1.5273,1.5308,1.5336,1.5377,1.541,1.5445,1.5496,1.5539,1.5567,1.561,1.5635,1.5637,1.5646,1.5644,1.5649,1.5589,1.5577,1.5644,1.5644,1.5644,1.5644,1.5644,1.5644,1.517,1.5221,1.5235,1.53,1.5323,1.537,1.5391,1.542,1.5446,1.5504,1.554,1.5558,1.559,1.5636,1.5676,1.5683,1.5699,1.5709,1.5716,1.566,1.5653,1.5646,1.5635,1.5713,1.5713,1.5773,1.5773,1.5774]}]]